Location: Fontevrault
(47.1823°N, 0.0493°E)
Time: 03:32:05
(UTC+00:00)

Uosat 12 SS-18 rocket - Pass Details

Date: 27 October 2021
Orbit: 579 x 1405 km, 64.6° (Epoch: 01 December)

Event Time Altitude Azimuth Distance (km) Brightness Sun altitude
Rises 22:08:37 0° 322° (NW) 3,822 8.7 -50.5°
Reaches altitude 10° 22:11:10 10° 327° (NNW) 2,979 8.0 -50.8°
Enters shadow 22:12:25 16° 331° (NNW) 2,594 7.6 -50.9°
